{"data":{"norad_id":64236,"intl_designator":"2025-119D","name":"STARLINK-11691 [DTC]","alt_names":[],"object_type":"PAYLOAD","status":"ACTIVE","operator":null,"country":"US","launch_date":"2025-06-03","launch_site_code":"AFETR","launch_vehicle":null,"mission":null,"orbit_class":"UNKNOWN","rcs_meters":null,"size_class":null,"mass_kg":null,"dimensions":null,"purposes":["comms"],"wikipedia_slug":null,"has_3d_model":false,"image_url":null,"decayed_at":null,"tle_current":{"epoch":"2026-09-19T23:33:23.458464Z","epoch_age_seconds":182406,"freshness":"STALE","line1":"1 64236U 25119D   26262.98152151  .00127824  00000+0  97975-3 0  9992","line2":"2 64236  42.9998 117.8203 0001015  11.9787 348.1105 15.70953357 75803","mean_motion":15.70953357,"eccentricity":0.0001015,"inclination_deg":42.9998,"raan_deg":117.8203,"arg_perigee_deg":11.9787,"mean_anomaly_deg":348.1105,"bstar":0.00097975,"rev_number":7580,"period_min":91.664083696917,"perigee_km":355.48755325933,"apogee_km":356.85461780069,"semimajor_km":6734.30808553,"source":"CELESTRAK","updated_at":"2026-09-21T09:00:35.276592Z"}}}